Skip Page Navigation
NASA JPL Caltech
NASA Logo - Jet Propulsion Laboratory + View the NASA Portal
+ Center for Near-Earth Object Studies
JPL Home Earth Solar System Stars & Galaxies Technology
JPL Solar System Dynamics
BODIES ORBITS EPHEMERIDES TOOLS PHYSICAL DATA DISCOVERY FAQ SITE MAP
IMPORTANT: The SSD Announcement email list is now available. Major changes are coming in the near future, including possible hostname and/or URL changes. To be notified of such changes, subscribe to this email list.

Please visit this page for more details.


JPL Small-Body Database Browser
Search: [ help ]  
34108 (2000 PN23)
Classification: Main-belt Asteroid          SPK-ID: 2034108
Ephemeris | Orbit Diagram | Orbital Elements | Mission Design | Physical Parameters | Discovery Circumstances | Close-Approach Data ]

[ show orbit diagram ]
Orbital Elements at Epoch 2458600.5 (2019-Apr-27.0) TDB
Reference: JPL 17 (heliocentric ecliptic J2000)
 Element Value Uncertainty (1-sigma)   Units 
e .2463882307550442 3.8871e-08  
a 2.969896644915942 1.7539e-08 au
q 2.238149065049761 1.1393e-07 au
i 1.221066130204714 4.7436e-06 deg
node 142.3093130724046 0.00021569 deg
peri 228.3240375287539 0.00021597 deg
M 209.3442341914543 1.4618e-05 deg
tp 2459382.836669915618
(2021-Jun-17.33666992)
8.1024e-05 TDB
period 1869.43526295259
5.12
1.656e-05
4.534e-08
d
yr
n .1925715252805359 1.7058e-09 deg/d
Q 3.701644224782123 2.186e-08 au
  Orbit Determination Parameters
   # obs. used (total)      837  
   data-arc span      10429 days (28.55 yr)  
   first obs. used      1990-10-21  
   last obs. used      2019-05-11  
   planetary ephem.      DE431  
   SB-pert. ephem.      SB431-N16  
   condition code      0  
   norm. resid. RMS      .56002  
   source      ORB  
   producer      Otto Matic  
   solution date      2019-May-30 03:50:01  

Additional Information
 Earth MOID = 1.23739 au 
 Jupiter MOID = 1.75806 au 
 T_jup = 3.216 
[ show covariance matrix ]

Ephemeris | Orbit Diagram | Orbital Elements | Mission Design | Physical Parameters | Discovery Circumstances | Close-Approach Data ]

Physical Parameter Table
Parameter Symbol Value Units Sigma Reference Notes
absolute magnitude H 14.6   n/a MPO436002  
diameter diameter 6.155 km 0.358 urn:nasa:pds:neowise_diameters_albedos::2.0[mainbelt] (http://adsabs.harvard.edu/abs/2011ApJ...741...68M)  
geometric albedo albedo 0.074   0.011 urn:nasa:pds:neowise_diameters_albedos::2.0[mainbelt] (http://adsabs.harvard.edu/abs/2011ApJ...741...68M)  

34108 (2000 PN23)          Discovered 2000-Aug-02 by LINEAR at Socorro
Reference: 20020128/Numbers.arcLast Updated: 2004-04-19

[ show close-approach data ]
Ephemeris | Orbit Diagram | Orbital Elements | Mission Design | Physical Parameters | Discovery Circumstances | Close-Approach Data ]
ABOUT SSD CREDITS/AWARDS PRIVACY/COPYRIGHT GLOSSARY LINKS
FirstGov
(server date/time)  
NASA Home Page
Site Manager:   Ryan S. Park
Webmaster  Alan B. Chamberlin